When you browse on this site, cookies collect data to enhance your experience and personalize the content and advertising you see.
Visit our Privacy Policy to learn more. By continuing to use the site, you agree to this use of cookies and data.
  • In Deutschland
  • Länderverzeichnis
  • Für 7 Tage
  • Wassertemperatur
  • Satellitenkarten
  • Wetterkarte
  • Widgets
  • user-avatar
    Anmelden

    Stündliche Wetter Dongchong

    Heute, 18 Dezember, Dienstag

    Zeit Temperatur Niederschläge Wind Luftdruck Luftfeuchtigkeit
    00:00 +8°C° 0 mm 2 m/S 754 mmHg 68%
    01:00 +8°C° 0 mm 2 m/S 754 mmHg 68%
    02:00 +7°C° 0 mm 2 m/S 753 mmHg 66%
    03:00 +7°C° 0 mm 2 m/S 753 mmHg 66%
    04:00 +7°C° 0 mm 2 m/S 753 mmHg 65%
    05:00 +7°C° 0 mm 2 m/S 753 mmHg 65%
    06:00 +8°C° 0 mm 2 m/S 754 mmHg 64%
    07:00 +8°C° 0 mm 2 m/S 754 mmHg 63%
    08:00 +10°C° 0 mm 2 m/S 754 mmHg 63%
    09:00 +13°C° 0 mm 2 m/S 754 mmHg 58%
    10:00 +16°C° 0 mm 2 m/S 754 mmHg 52%
    11:00 +18°C° 0 mm 2 m/S 753 mmHg 47%
    12:00 +18°C° 0 mm 2 m/S 753 mmHg 46%
    13:00 +18°C° 0 mm 2 m/S 752 mmHg 46%
    14:00 +20°C° 0 mm 1 m/S 751 mmHg 45%
    15:00 +17°C° 0 mm 2 m/S 751 mmHg 53%
    16:00 +15°C° 0 mm 2 m/S 752 mmHg 61%
    17:00 +14°C° 0 mm 2 m/S 752 mmHg 69%
    18:00 +13°C° 0 mm 2 m/S 752 mmHg 72%
    19:00 +12°C° 0 mm 2 m/S 752 mmHg 75%
    20:00 +11°C° 0 mm 1 m/S 752 mmHg 76%
    21:00 +10°C° 0 mm 2 m/S 752 mmHg 77%
    22:00 +10°C° 0 mm 2 m/S 752 mmHg 78%
    23:00 +10°C° 0 mm 2 m/S 752 mmHg 79%

    Morgen, 19 Dezember, Mittwoch

    Zeit Temperatur Niederschläge Wind Luftdruck Luftfeuchtigkeit
    00:00 +10°C° 0 mm 2 m/S 752 mmHg 79%
    01:00 +9°C° 0 mm 2 m/S 752 mmHg 79%
    02:00 +9°C° 0 mm 2 m/S 752 mmHg 79%
    03:00 +9°C° 0 mm 2 m/S 752 mmHg 77%
    04:00 +9°C° 0 mm 2 m/S 752 mmHg 76%
    05:00 +9°C° 0 mm 2 m/S 751 mmHg 75%
    06:00 +10°C° 0 mm 2 m/S 752 mmHg 73%
    07:00 +12°C° 0 mm 2 m/S 752 mmHg 72%
    08:00 +13°C° 0 mm 2 m/S 752 mmHg 70%
    09:00 +15°C° 0 mm 2 m/S 751 mmHg 65%
    10:00 +18°C° 0 mm 2 m/S 751 mmHg 59%
    11:00 +20°C° 0 mm 2 m/S 751 mmHg 54%
    12:00 +20°C° 0 mm 2 m/S 750 mmHg 54%
    13:00 +21°C° 0 mm 2 m/S 750 mmHg 55%
    14:00 +21°C° 0 mm 2 m/S 749 mmHg 55%
    15:00 +20°C° 0 mm 2 m/S 749 mmHg 63%
    16:00 +18°C° 0 mm 2 m/S 749 mmHg 71%
    17:00 +17°C° 0 mm 2 m/S 749 mmHg 78%
    18:00 +16°C° 0 mm 2 m/S 749 mmHg 81%
    19:00 +15°C° 0 mm 2 m/S 749 mmHg 84%
    20:00 +15°C° 0 mm 2 m/S 749 mmHg 87%
    21:00 +15°C° 0 mm 2 m/S 749 mmHg 88%
    22:00 +14°C° 0 mm 2 m/S 749 mmHg 88%
    23:00 +14°C° 0 mm 2 m/S 748 mmHg 88%

    übermorgen, 20 Dezember, Donnerstag

    Zeit Temperatur Niederschläge Wind Luftdruck Luftfeuchtigkeit
    00:00 +14°C° 0 mm 2 m/S 748 mmHg 87%
    01:00 +14°C° 0 mm 2 m/S 748 mmHg 87%
    02:00 +14°C° 0 mm 2 m/S 748 mmHg 86%
    03:00 +14°C° 0 mm 2 m/S 748 mmHg 85%
    04:00 +14°C° 0 mm 1 m/S 748 mmHg 83%
    05:00 +14°C° 0 mm 1 m/S 747 mmHg 81%
    06:00 +15°C° 0.2 mm 1 m/S 748 mmHg 81%
    07:00 +15°C° 0.2 mm 1 m/S 748 mmHg 81%
    08:00 +15°C° 0.2 mm 1 m/S 748 mmHg 81%
    09:00 +16°C° 0.3 mm 1 m/S 748 mmHg 82%
    10:00 +16°C° 0.3 mm 1 m/S 748 mmHg 82%
    11:00 +18°C° 0.3 mm 1 m/S 748 mmHg 83%
    12:00 +19°C° 0.2 mm 1 m/S 748 mmHg 80%
    13:00 +18°C° 0.2 mm 0 m/S 747 mmHg 78%
    14:00 +19°C° 0.2 mm 0 m/S 746 mmHg 75%
    15:00 +18°C° 0 mm 0 m/S 746 mmHg 79%
    16:00 +19°C° 0 mm 1 m/S 746 mmHg 83%
    17:00 +19°C° 0 mm 1 m/S 746 mmHg 86%
    18:00 +18°C° 0 mm 1 m/S 747 mmHg 88%
    19:00 +18°C° 0 mm 1 m/S 747 mmHg 90%
    20:00 +16°C° 0 mm 1 m/S 748 mmHg 92%
    21:00 +16°C° 0 mm 1 m/S 748 mmHg 93%
    22:00 +16°C° 0 mm 2 m/S 748 mmHg 93%
    23:00 +16°C° 0 mm 2 m/S 748 mmHg 94%

    21 Dezember, Freitag

    Zeit Temperatur Niederschläge Wind Luftdruck Luftfeuchtigkeit
    00:00 +16°C° 0 mm 2 m/S 748 mmHg 95%
    01:00 +16°C° 0 mm 2 m/S 748 mmHg 95%
    02:00 +16°C° 0 mm 2 m/S 748 mmHg 96%
    03:00 +16°C° 0 mm 3 m/S 748 mmHg 96%
    04:00 +14°C° 0 mm 3 m/S 748 mmHg 96%
    05:00 +14°C° 0 mm 3 m/S 747 mmHg 97%
    06:00 +16°C° 0 mm 3 m/S 748 mmHg 95%
    07:00 +16°C° 0 mm 3 m/S 748 mmHg 93%
    08:00 +17°C° 0 mm 2 m/S 749 mmHg 92%
    09:00 +18°C° 0 mm 2 m/S 749 mmHg 89%
    10:00 +19°C° 0 mm 2 m/S 749 mmHg 86%
    11:00 +20°C° 0 mm 3 m/S 749 mmHg 83%
    12:00 +21°C° 0 mm 3 m/S 749 mmHg 79%
    13:00 +22°C° 0 mm 3 m/S 748 mmHg 75%
    14:00 +24°C° 0 mm 3 m/S 748 mmHg 71%
    15:00 +22°C° 0 mm 3 m/S 748 mmHg 77%
    16:00 +21°C° 0 mm 3 m/S 748 mmHg 83%
    17:00 +19°C° 0 mm 4 m/S 748 mmHg 89%
    18:00 +19°C° 0 mm 4 m/S 748 mmHg 92%
    19:00 +18°C° 0 mm 4 m/S 749 mmHg 94%
    20:00 +18°C° 0 mm 4 m/S 749 mmHg 97%
    21:00 +18°C° 0 mm 4 m/S 749 mmHg 96%
    22:00 +18°C° 0 mm 4 m/S 749 mmHg 96%
    23:00 +18°C° 0 mm 4 m/S 749 mmHg 96%

    22 Dezember, Samstag

    Zeit Temperatur Niederschläge Wind Luftdruck Luftfeuchtigkeit
    00:00 +18°C° 0.1 mm 4 m/S 749 mmHg 96%
    01:00 +18°C° 0.1 mm 4 m/S 749 mmHg 96%
    02:00 +18°C° 0.1 mm 4 m/S 749 mmHg 96%
    03:00 +18°C° 0 mm 4 m/S 749 mmHg 96%
    04:00 +18°C° 0 mm 4 m/S 749 mmHg 96%
    05:00 +17°C° 0 mm 4 m/S 749 mmHg 97%
    06:00 +18°C° 0 mm 4 m/S 749 mmHg 95%
    07:00 +18°C° 0 mm 4 m/S 749 mmHg 94%
    08:00 +18°C° 0 mm 4 m/S 750 mmHg 93%
    09:00 +19°C° 0 mm 4 m/S 750 mmHg 88%
    10:00 +20°C° 0 mm 4 m/S 750 mmHg 83%
    11:00 +22°C° 0 mm 4 m/S 750 mmHg 78%
    12:00 +21°C° 0 mm 4 m/S 750 mmHg 80%
    13:00 +21°C° 0 mm 4 m/S 749 mmHg 82%
    14:00 +20°C° 0 mm 4 m/S 748 mmHg 84%
    15:00 +20°C° 0 mm 5 m/S 748 mmHg 87%
    16:00 +19°C° 0 mm 5 m/S 749 mmHg 89%
    17:00 +19°C° 0 mm 5 m/S 749 mmHg 92%
    18:00 +19°C° 0 mm 5 m/S 749 mmHg 93%
    19:00 +17°C° 0 mm 5 m/S 750 mmHg 94%
    20:00 +18°C° 0 mm 4 m/S 751 mmHg 95%
    21:00 +18°C° 0 mm 4 m/S 751 mmHg 95%
    22:00 +18°C° 0 mm 4 m/S 751 mmHg 95%
    23:00 +18°C° 0 mm 4 m/S 751 mmHg 95%

    23 Dezember, Sonntag

    Zeit Temperatur Niederschläge Wind Luftdruck Luftfeuchtigkeit
    00:00 +18°C° 0 mm 4 m/S 751 mmHg 95%
    01:00 +18°C° 0 mm 4 m/S 751 mmHg 95%
    02:00 +17°C° 0 mm 4 m/S 751 mmHg 96%
    03:00 +17°C° 0 mm 4 m/S 750 mmHg 95%
    04:00 +17°C° 0 mm 4 m/S 750 mmHg 95%
    05:00 +17°C° 0 mm 4 m/S 750 mmHg 95%
    06:00 +17°C° 0 mm 4 m/S 751 mmHg 94%
    07:00 +17°C° 0 mm 4 m/S 751 mmHg 93%
    08:00 +18°C° 0 mm 4 m/S 751 mmHg 92%
    09:00 +17°C° 0 mm 5 m/S 751 mmHg 89%
    10:00 +19°C° 0 mm 5 m/S 751 mmHg 85%
    11:00 +20°C° 0 mm 5 m/S 751 mmHg 81%
    12:00 +20°C° 0.1 mm 6 m/S 751 mmHg 83%
    13:00 +19°C° 0.1 mm 6 m/S 750 mmHg 85%
    14:00 +19°C° 0.1 mm 6 m/S 750 mmHg 87%
    15:00 +17°C° 0.1 mm 7 m/S 750 mmHg 88%
    16:00 +17°C° 0.1 mm 7 m/S 750 mmHg 89%
    17:00 +16°C° 0.1 mm 8 m/S 751 mmHg 90%
    18:00 +16°C° 0.1 mm 8 m/S 751 mmHg 90%
    19:00 +15°C° 0.1 mm 7 m/S 752 mmHg 89%
    20:00 +15°C° 0.1 mm 7 m/S 752 mmHg 89%
    21:00 +15°C° 0.1 mm 7 m/S 752 mmHg 89%
    22:00 +14°C° 0.1 mm 7 m/S 752 mmHg 89%
    23:00 +14°C° 0.1 mm 7 m/S 752 mmHg 89%
    Mehr zeigen